Location: ??
(35.5052°N, 139.7262°E)
Time: 02:05:57
(UTC+00:00)

Delta 2 Rocket - Pass Details

Date: 20 June 2021
Orbit: 416 x 801 km, 35.6° (Epoch: 26 July)

Event Time Altitude Azimuth Distance (km) Brightness Sun altitude
Exits shadow 18:16:39 14° 264° (W) 1,568 5.2 -12.3°
Maximum altitude 18:20:10 89° 172° (S) 506 3.1 -11.8°
Drops below altitude 10° 18:23:51 10° 85° (E) 1,617 6.6 -11.2°
Sets 18:25:54 0° 86° (E) 2,447 7.6 -10.9°
